Location: Unspecified
(0.0000°N, 0.0000°E)
Time: 20:47:39
(UTC+00:00)

CZ-3C DEB - Pass Details

Date: 13 March 2026
Orbit: 440 x 28021 km, 21.3° (Epoch: 10 April)

Event Time Altitude Azimuth Distance (km) Brightness Sun altitude
Rises 15:57:43 0° 287° (WNW) 9,520 ? 32.9°
Reaches altitude 10° 16:02:46 10° 291° (WNW) 9,870 ? 31.6°
Maximum altitude 19:22:30 63° 317° (NW) 28,532 ? -18.3°
Enters shadow 22:55:55 78° 212° (SSW) 9,460 ? -71.5°
